www.pogodaiklimat.ru

Погода и климат >> Архив погоды >> Индонезия >> Голеа


ПОГОДА в Голеа

  • Прогноз погоды в Голеа
  • Монитор погоды в Голеа

АРХИВ ПОГОДЫ в Голеа

Время (UTC), дата Ветер
(напр.,м/с)
 
Видим.   Явления Облачность Т
(С)
Тd
(С)
f
(%)
Тe
(С)
Тes
(С)
Комфортность P
(гПа)
Po
(гПа)
Тmin
(С)
Tmax
(С)
R
(мм)
R24
(мм)
S
(см)
12 10.06 штиль 0 10 км {дождь} 10/4 500 м
[Cu med, cong Ac trans Ci fib]
+25.8 +24.6 93 +36 +36 очень
душно
1010.3 1006.2 +29.4 0.0
15 10.06 штиль 0 10 км 9/4 500 м
[Cu med, cong Ac trans Ci fib]
+24.6 +23.8 95 +33 +33 очень
душно
1010.6 1006.5
18 10.06 штиль 0 10 км 9/4 500 м
[Cu med, cong Ac trans Ci fib]
+24.3 +23.8 97 +33 +33 очень
душно
1009.3 1005.2
21 10.06 штиль 0 10 км 9/4 500 м
[Cu med, cong Ac trans Ci fib]
+24.0 +23.6 98 +33 +33 очень
душно
1010.0 1005.9
00 11.06 штиль 0 10 км 10/4 500 м
[Cu med, cong Ac trans Ci fib]
+26.0 +24.8 93 +37 +40 очень
душно
1011.7 1007.6 +23.0 0.0
03 11.06 штиль 0 10 км 10/5 450 м
[Cb cap Ac trans Ci fib]
+28.1 +25.5 86 +41 +48 опасность
перегрева
1010.7 1006.6
06 11.06 З 3 10 км 9/4 500 м
[Cu med, cong Ac trans Ci fib]
+29.6 +25.3 78 +43 +47 опасность
перегрева
1008.0 1003.9
09 11.06 З 2 10 км 6/4 540 м
[Cu med, cong Ac trans Ci fib]
+28.3 +24.7 81 +40 +41 очень
душно
1009.0 1004.9
12 11.06 штиль 0 10 км 5/3 500 м
[Cu hum Ac trans Ci fib]
+25.4 +24.4 94 +35 +35 очень
душно
1010.5 1006.4 +30.2
15 11.06 штиль 0 10 км 5/3 500 м
[Cu med, cong Ac trans Ci fib]
+24.0 +23.5 97 +32 +32 очень
душно
1010.9 1006.8
18 11.06 штиль 0 10 км 6/4 540 м
[Cu med, cong Ac trans Ci fib]
+23.2 +22.8 98 +32 +32 очень
душно
1009.6 1005.5
21 11.06 штиль 0 10 км 4/3 500 м
[Cu hum Ac trans Ci fib]
+22.6 +22.2 98 +30 +30 очень
душно
1010.1 1006.0
00 12.06 штиль 0 10 км 3/1 500 м
[Cu hum Ac trans Ci fib]
+27.5 +25.0 86 +39 +47 очень
душно
1011.8 1007.7 +22.2
03 12.06 СВ 3 10 км 5/4 540 м
[Cu med, cong Ac trans Ci fib]
+31.5 +25.0 68 +45 +54 опасность
перегрева
1010.9 1006.8
06 12.06 СВ 2 10 км 3/3 540 м
[Cu med, cong Ac trans Ci fib]
+32.7 +24.6 62 +45 +54 опасность
перегрева
1008.7 1004.6
09 12.06 штиль 0 10 км в посл. час гроза 3/3 540 м
[Cu med, cong Ac trans Ci fib]
+29.6 +25.6 79 +44 +44 опасность
перегрева
1009.5 1005.4
12 12.06 штиль 0 10 км зарница 6/4 500 м
[Cb cap Ac trans Ci fib]
+28.0 +25.1 84 +40 +40 очень
душно
1010.7 1006.6 +32.7
15 12.06 штиль 0 8000 м в посл. час дождь 10/6 500 м
[Cb cap Ac As Ci sp]
+25.6 +24.6 94 +36 +36 очень
душно
1010.5 1006.4 2
18 12.06 штиль 0 10 км {дождь} 5/3 540 м
[Cu med, cong Ac trans Ci fib]
+24.6 +24.2 98 +34 +34 очень
душно
1008.4 1004.3 2
21 12.06 штиль 0 10 км 3/1 540 м
[Cu hum Ac trans Ci fib]
+23.6 +23.1 97 +31 +31 очень
душно
1008.4 1004.3
00 13.06 штиль 0 10 км 6/4 600 м
[Cu hum Ac trans Ci fib]
+28.0 +25.1 84 +40 +45 очень
душно
1010.4 1006.3 +23.0 2
03 13.06 штиль 0 10 км 6/4 540 м
[Cu med, cong Ac trans Ci fib]
+31.7 +24.4 65 +44 +57 опасность
перегрева
1009.4 1005.3
06 13.06 Ю 2 10 км 9/6 500 м
[Cb cap Ac trans Ci fib]
+31.3 +25.2 70 +45 +48 опасность
перегрева
1007.1 1003.0
09 13.06 штиль 0 10 км 9/4 540 м
[Cu med, cong Ac trans Ci fib]
+28.0 +25.1 84 +40 +41 очень
душно
1007.4 1003.3
12 13.06 штиль 0 7000 м гроза без осадков 10/6 500 м
[Cb cap Ac As Ci sp]
+25.7 +25.0 96 +37 +37 очень
душно
1009.8 1005.7 +34.1 18
15 13.06 штиль 0 10 км {гроза} 6/4 540 м
[Cu med, cong Ac trans Ci fib]
+24.7 +24.0 96 +34 +34 очень
душно
1009.9 1005.8
18 13.06 штиль 0 10 км 4/3 540 м
[Cu hum Ac trans Ci fib]
+24.0 +23.6 98 +33 +33 очень
душно
1008.7 1004.6
21 13.06 штиль 0 10 км 6/4 540 м
[Cu med, cong Ac trans Ci fib]
+23.3 +22.9 98 +33 +33 очень
душно
1008.7 1004.6
00 14.06 З 2 10 км 8/1 540 м
[Cu med, cong Ac trans Ci sp]
+25.0 +24.2 95 +34 +39 очень
душно
1010.3 1006.2 +23.3 18
03 14.06 штиль 0 10 км 8/4 540 м
[Cu med, cong Ac trans Ci sp]
+31.5 +25.0 68 +45 +55 опасность
перегрева
1009.3 1005.2
06 14.06 СВ 2 10 км 8/4 540 м
[Cu med, cong Ac trans Ci sp]
+32.8 +25.2 64 +47 +52 опасность
перегрева
1006.8 1002.7
09 14.06 З 2 10 км 6/4 540 м
[Cu med, cong Ac trans Ci sp]
+30.4 +25.9 77 +45 +46 опасность
перегрева
1007.2 1003.1
12 14.06 ЮЗ 3 10 км 4/3 540 м
[Cu med, cong Ac trans Ci sp]
+26.0 +24.3 90 +36 +36 очень
душно
1009.4 1005.3 +33.0
15 14.06 штиль 0 10 км 9/1 540 м
[Cu med, cong Ac trans Ci sp]
+24.9 +24.2 96 +34 +34 очень
душно
1010.0 1005.9
18 14.06 штиль 0 10 км 4/1 540 м
[Cu hum Ac trans Ci fib]
+24.0 +23.6 98 +33 +33 очень
душно
1008.8 1004.7
21 14.06 штиль 0 10 км 3/1 540 м
[Cu med, cong Ac trans Ci fib]
+23.2 +22.8 98 +32 +32 очень
душно
1008.8 1004.7
00 15.06 ЮЗ 2 10 км 8/4 540 м
[Cu med, cong Ac trans Ci fib]
+27.6 +24.7 84 +39 +42 очень
душно
1010.6 1006.5 +23.4
03 15.06 З 2 6000 м гроза, ливневой дождь 10/6 500 м
[Cb cap Ac As Ci sp]
+27.6 +25.2 87 +40 +44 очень
душно
1010.2 1006.1 5
06 15.06 Ю 2 10 км {гроза, дождь} 10/4 540 м
[Cu med, cong Ac trans Ci sp]
+28.9 +25.0 80 +42 +46 опасность
перегрева
1008.5 1004.4 1
09 15.06 ЮЗ 2 9000 м в посл. час дождь 10/6 500 м
[Cb cap Ac trans Ci sp]
+27.4 +24.8 86 +39 +39 очень
душно
1008.9 1004.8 0.0
12 15.06 штиль 0 7000 м слаб. дождь 9/5 500 м
[Cb cap Ac As Ci sp]
+25.5 +24.7 95 +36 +36 очень
душно
1011.2 1007.1 +31.9 0.5
15 15.06 штиль 0 8000 м слаб. дождь 8/5 500 м
[Cb cap Ac trans Ci sp]
+24.2 +23.5 96 +33 +33 очень
душно
1011.2 1007.1 0.5
18 15.06 штиль 0 10 км {дождь} 8/4 540 м
[Cu med, cong Ac trans Ci fib]
+23.6 +23.2 98 +32 +32 очень
душно
1009.8 1005.7 0.5
21 15.06 штиль 0 10 км 8/4 540 м
[Cu med, cong Ac trans Ci fib]
+23.1 +22.7 98 +32 +32 очень
душно
1009.5 1005.4
00 16.06 З 1 10 км 6/3 540 м
[Cu med, cong Ac trans Ci sp]
+27.8 +24.9 84 +40 +44 очень
душно
1011.2 1007.1 +20.0 8
03 16.06 ЮЗ 3 10 км 8/4 540 м
[Cu med, cong Ac trans Ci fib]
+30.8 +24.8 70 +44 +50 опасность
перегрева
1010.1 1006.0
06 16.06 З 2 7000 м слаб. дождь 9/6 500 м
[Cb cap Ac cuf Ci sp]
+30.2 +23.5 67 +41 +44 опасность
перегрева
1008.9 1004.8 0.0
09 16.06 штиль 0 10 км {дождь} 8/4 540 м
[Cu med, cong Ac As Ci sp]
+27.8 +24.7 83 +39 +40 очень
душно
1008.7 1004.6 0.4
12 16.06 штиль 0 10 км {дождь} 8/4 540 м
[Cu med, cong Ac trans Ci fib]
+26.0 +25.1 95 +37 +37 очень
душно
1010.7 1006.6 +32.0
15 16.06 штиль 0 10 км 9/4 540 м
[Cu med, cong Ac trans Ci sp]
+25.0 +24.2 95 +34 +34 очень
душно
1011.4 1007.3
18 16.06 штиль 0 8000 м 9/4 540 м
[Cu med, cong Ac trans Ci sp]
+24.6 +24.1 97 +34 +34 очень
душно
1011.9 1007.8
21 16.06 штиль 0 8000 м 9/4 540 м
[Cu med, cong Ac trans Ci fib]
+24.0 +23.0 94 +32 +32 очень
душно
1010.8 1006.7
00 17.06 З 1 н/о слаб. дождь 10/5 500 м
[Cb cap As op]
+25.0 +23.7 93 +34 +35 очень
душно
1012.1 1008.0 +23.4 1 2
03 17.06 З 3 10 км 10/5 540 м
[Cu med, cong As op Ci fib]
+28.9 +24.6 78 +41 +45 опасность
перегрева
1011.2 1007.1 0.0
06 17.06 С 4 10 км 9/5 540 м
[Cu med, cong Ac trans Ci fib]
+29.4 +24.6 75 +42 +44 опасность
перегрева
1009.5 1005.4
09 17.06 З 2 10 км 9/4 540 м
[Cu med, cong Ac trans Ci fib]
+28.4 +24.0 77 +39 +39 очень
душно
1009.5 1005.4

 

Местоположение метеостанции Голеа (Индонезия): широта 1.82 долгота 127.83 высота над уровнем моря 8 м.

В архиве по умолчанию представлена погода в Голеа за последнюю неделю. Архивные данные за месяц целиком и за предыдущие месяцы, начиная с января 2011 года, Вы можете получить, выбрав интересующий диапазон дат из раскрывающегося списка и нажав кнопку "Ввод!".


*Определитесь, кто Вы:
робот инопланетянин человек

Внимание! Время в таблицах - всемирное. Для получения местного времени необходимо прибавить поправку, которая равна 8 ч.

Смотрите также архив погоды в соседних городах и на ближайших метеорологических станциях:

Погода в Тернате (Индонезия) (128 км)
Погода в Лабухе (Индонезия) (275 км)
Погода в Битунге (Индонезия) (298 км)
Погода в Менадо (Индонезия) (326 км)
Погода в Аэропорту Соронг-Джефман (Индонезия) (476 км)
Погода на Санане (Индонезия) (479 км)
Погода в Горонтало (Индонезия) (550 км)
Погода в Генерал-Сантосе (Филиппины) (561 км)
Погода в Намлеа (Индонезия) (570 км)
Погода в Амахаи (Индонезия) (587 км)

Пояснения к столбцам:

Ветер - указаны скорость ветра в м/с - средняя за 10 мин, порывы в срок и между сроками (в фигурных скобках) и направление, откуда дует ветер: С - северный, СВ - северо-восточный, В - восточный, ЮВ - юго-восточный, Ю - южный, ЮЗ - юго-западный, З - западный, СЗ - северо-западный.
Видимость - горизонтальная дальность видимости в метрах или километрах. При видимости от 1 до 10 км при отсутствии осадков обычно наблюдается дымка, при ухудшении видимости до 1 км и менее - туман. В сухую погоду видимость может ухудшаться дымом, пылью или мглою.
Явления - указаны атмосферные явления, наблюдавшиеся в срок или в последний час перед сроком; фигурными скобками обозначены явления, наблюдавшиеся между сроками (за 1-3 часа до срока); квадратными скобками обозначены град или гололедные отложения с указанием их диаметра в мм.
Облачность - указаны через наклонную черту общая и нижняя облачность в баллах и высота нижней границы облаков в метрах; квадратными скобками обозначены формы облаков: Ci - перистые, Cs - перисто-слоистые, Cc - перисто-кучевые, Ac - высококучевые, As - высокослоистые, Sc - слоисто-кучевые, Ns - слоисто-дождевые, Cu - кучевые, Cb - кучево-дождевые. Подробнее классификацию облаков см. в Атласе облаков (PDF).
T - Температура воздуха - температура, измеренная на высоте 2 м над землей.
Td - Температура точки росы - температура, при понижении до которой содержащийся в воздухе водяной пар достигнет насыщения.
f - Относительная влажность воздуха - влажноcть воздуха, измеренная на высоте 2 м над землей.
Te - Эффективная температура - температура, которую ощущает одетый по сезону человек в тени. Характеристика душности погоды. При расчете учитывается влияние влажности воздуха и скорости ветра на теплоощущения человека.
Tes - Эффективная температура на солнце - температура, которую ощущает человек, с поправкой на солнечный нагрев. Характеристика знойности погоды. Зависит от высоты солнца над горизонтом, облачности и скорости ветра. Ночью, в пасмурную погоду, а также при ветре 12 м/с и более поправка равна нулю.
P - Атмосферное давление - приведенное к уровню моря атмосферное давление.
Po - Атмосферное давление - измеренное на уровне метеостанции атмосферное давление.
Tmin - Минимальная температура - минимум температуры воздуха на высоте 2 м над землей.
Tmax - Максимальная температура - максимум температуры воздуха на высоте 2 м над землей.
R - Количество осадков - Количество выпавших осадков за период времени, мм. При наведении курсора мыши на число - период времени, за который выпало указанное количество осадков.
R24 - Количество осадков - Количество выпавших осадков за 24 часа, мм.
S - Снежный покров - Высота снежного покрова, см. При наведении курсора мыши на число - состояние снежного покрова и степень покрытия местности в баллах.